Weather History for Mountain Home, AR

Change the Weather History Date:

Wednesday, December 5, 2012

  Actual Average (KHRO) Record (KHRO)
Temperature  
Mean Temperature 46 °F 40 °F  
Max Temperature 59 °F 50 °F 77 °F (1998)
Min Temperature 33 °F 31 °F 11 °F (1911)
Degree Days  
Heating Degree Days 19 24  
Month to date heating degree days 118  
Since 1 July heating degree days 882  
Cooling Degree Days 0 0  
Month to date cooling degree days 0  
Year to date cooling degree days 1416  
Moisture  
Dew Point 32 °F    
Average Humidity 61    
Maximum Humidity 96    
Minimum Humidity 33    
Precipitation  
Precipitation 0.00 in 0.11 in 3.71 in (1975)
Month to date precipitation 0.60  
Year to date precipitation 41.54  
Snow  
Snow 0.00 in 0.00 in 6.10 in (1984)
Month to date snowfall 0.0  
Since 1 July snowfall 0.5  
Snow Depth -    
Sea Level Pressure  
Sea Level Pressure 30.24 in    
Wind  
Wind Speed 3 mph (ESE)    
Max Wind Speed 10 mph    
Max Gust Speed -    
Visibility 10 miles    
Events      
T = Trace of Precipitation, MM = Missing Value Source: NWS Daily Summary

Daily Weather History Graph

Daily Weather History Graph

Search for Another Location

Airport:

Trip Planner

Search our weather history database for the weather conditions in past years. The results will help you decide how hot, cold, wet, or windy it might be!

Date:

Astronomy

Dec. 05, 2012 Rise Set
Actual Time 7:06 AM CST 4:54 PM CST
Civil Twilight 6:38 AM CST 5:22 PM CST
Nautical Twilight 6:06 AM CST 5:55 PM CST
Astronomical Twilight 5:35 AM CST 6:26 PM CST
Moon 11:35 PM CST (12/5) 11:38 AM CST (12/5)
Length of Visible Light 10h 44m
Length of Day
9h 47m
Waning Gibbous, 59% of the Moon is Illuminated
Dec 5
Waning Gibbous
Dec 6
Last Quarter
Dec 13
New
Dec 19
First Quarter
Dec 28
Full

Hourly Weather History & Observations

Time (CST) Temp. Windchill Dew Point Humidity Pressure Visibility Wind Dir Wind Speed Gust Speed Precip Events Conditions
12:53 AM 37.9 °F - 35.1 °F 89% 30.31 in 10.0 mi Calm Calm - N/A   Clear
1:53 AM 37.9 °F - 34.0 °F 86% 30.31 in 10.0 mi Calm Calm - N/A   Clear
2:53 AM 35.1 °F - 33.1 °F 92% 30.30 in 10.0 mi Calm Calm - N/A   Clear
3:53 AM 36.0 °F - 33.1 °F 89% 30.31 in 10.0 mi Calm Calm - N/A   Clear
4:53 AM 33.1 °F - 32.0 °F 96% 30.33 in 10.0 mi Calm Calm - N/A   Clear
5:53 AM 37.0 °F - 32.0 °F 82% 30.32 in 10.0 mi Calm Calm - N/A   Clear
6:53 AM 36.0 °F - 30.9 °F 82% 30.33 in 10.0 mi Calm Calm - N/A   Clear
8:53 AM 39.9 °F - 36.0 °F 86% 30.35 in 10.0 mi Calm Calm - N/A   Clear
9:53 AM 48.9 °F - 34.0 °F 56% 30.33 in 10.0 mi NE 4.6 mph - N/A   Clear
10:53 AM 54.0 °F - 35.1 °F 49% 30.32 in 10.0 mi East 5.8 mph - N/A   Clear
11:53 AM 57.0 °F - 33.1 °F 40% 30.28 in 10.0 mi East 9.2 mph - N/A   Clear
12:53 PM 57.9 °F - 30.9 °F 36% 30.26 in 10.0 mi ESE 8.1 mph - N/A   Clear
1:53 PM 59.0 °F - 30.0 °F 33% 30.22 in 10.0 mi SE 10.4 mph - N/A   Clear
2:53 PM 57.9 °F - 28.9 °F 33% 30.20 in 10.0 mi ESE 8.1 mph - N/A   Clear
3:53 PM 57.0 °F - 30.9 °F 37% 30.20 in 10.0 mi ESE 5.8 mph - N/A   Clear
4:53 PM 54.0 °F - 30.0 °F 40% 30.19 in 10.0 mi ESE 3.5 mph - N/A   Clear
5:53 PM 51.1 °F - 30.0 °F 44% 30.19 in 10.0 mi East 3.5 mph - N/A   Clear
6:53 PM 50.0 °F - 28.0 °F 43% 30.19 in 10.0 mi ESE 4.6 mph - N/A   Clear
7:53 PM 48.9 °F - 28.9 °F 46% 30.17 in 10.0 mi East 6.9 mph - N/A   Clear
8:53 PM 48.0 °F - 30.0 °F 50% 30.15 in 10.0 mi ESE 6.9 mph - N/A   Clear
9:53 PM 48.0 °F - 33.1 °F 56% 30.12 in 10.0 mi ESE 6.9 mph - N/A   Clear
10:53 PM 46.9 °F - 34.0 °F 61% 30.11 in 10.0 mi East 4.6 mph - N/A   Clear
11:53 PM 44.1 °F 41.5 °F 34.0 °F 68% 30.10 in 10.0 mi ESE 4.6 mph - N/A   Mostly Cloudy